Regional Weather Roundup
Issued by NWS

Home | Current Version | Previous Version | Text Only | Print | Product List | Glossary On
Versions: 1 2 3 4 5 6 7 8 9 10 11 12 13 14 15 16 17 18 19 20 21 22 23 24 25 26 27 28 29 30 31 32 33 34 35 36 37 38 39 40 41 42 43 44 45 46 47 48 49 50
000
ASUS43 KMPX 270301
RWRMN
WEATHER ROUNDUP FOR MINNESOTA
NATIONAL WEATHER SERVICE TWIN CITIES/CHANHASSEN MN
1000 PM CDT FRI MAY 26 2017


NOTE: "FAIR" INDICATES FEW OR NO CLOUDS BELOW 12,000 FEET WITH NO
SIGNIFICANT WEATHER AND/OR OBSTRUCTIONS TO VISIBILITY. N/A MEANS
CURRENT SKY AND/OR WEATHER CONDITIONS ARE NOT AVAILABLE.

MNZ060>063-068>070-270400-
   Twin Cities Metro

CITY           SKY/WX    TMP DP  RH WIND       PRES   REMARKS
TWIN CITIES    PTCLDY    67  46  47 W5        29.79R
ST PAUL        CLEAR     68  47  46 W6        29.79R
CRYSTAL        CLEAR     66  45  46 W7        29.78R
BLAINE         CLEAR     64  50  59 W5        29.79R
LAKEVILLE      CLEAR     64  48  55 W5        29.80R
EDEN PRAIRIE   CLEAR     69  47  45 NW7       29.79R
SOUTH ST PAUL  CLEAR     69  46  44 W5        29.78R
LAKE ELMO      FAIR      64  50  59 NW5       29.80R
$$
MNZ001>005-007-008-013>017-022>024-027-028-270400-
   Northwest Minnesota

CITY           SKY/WX    TMP DP  RH WIND       PRES   REMARKS
BEMIDJI        CLEAR     57  42  57 W3        29.78R
HALLOCK        PTCLDY    59  43  55 W8        29.72R
ROSEAU         PTCLDY    57  48  72 SW3       29.73R
WARROAD        MOCLDY    57  48  72 S5        29.73R
CROOKSTON      CLEAR     57  43  58 W8        29.78R
FOSSTON        CLEAR     54  41  62 S6        29.79R
DETROIT LAKES  CLEAR     59  43  55 W3        29.82R
MOORHEAD       CLEAR     61  43  51 W7        29.81R
PARK RAPIDS    LGT RAIN  57  41  55 W5        29.80R
MAHNOMEN       FAIR      57  42  57 W8        29.79R
$$
MNZ006-009>011-018-025>026-270400-
   North Central Minnesota

CITY           SKY/WX    TMP DP  RH WIND       PRES   REMARKS
BAUDETTE       CLEAR     59  43  55 SW5       29.73R
FLAG ISLAND    CLEAR     61  45  55 W7        29.70R
INTL FALLS     PTCLDY    62  44  51 W6        29.73R
WASKISH        CLEAR     57  48  72 SW8       29.75R
BIG FORK       CLEAR     63  45  51 W3        29.76R
LONGVILLE      PTCLDY    57  46  67 W5        29.78R
GRAND RAPIDS   PTCLDY    63  46  54 CALM      29.78R
CRANE LAKE     MOCLDY    55  55 100 CALM      29.74R
ORR            CLEAR     57  45  62 NW3       29.72R
COOK           CLEAR     57  46  67 CALM      29.75R
WALKER         FAIR      58  43  56 W7        29.79R
$$
MNZ012-019>021-037-270400-
   Northeast Minnesota

CITY           SKY/WX    TMP DP  RH WIND       PRES   REMARKS
DULUTH         PTCLDY    51  48  89 SE5       29.78R
ELY            PTCLDY    55  54  94 SE6       29.76R
HIBBING        CLEAR     53  45  74 CALM      29.74R
EVELETH        CLEAR     58  43  57 CALM      29.76R
DULUTH HARBOR  PTCLDY    46  46 100 N5        29.79R
TWO HARBORS    PTCLDY    52  46  82 CALM      29.76R
SILVER BAY     PTCLDY    54  54 100 CALM      29.76R FOG
GRAND MARAIS     N/A     48  45  89 NE5       29.78R
G MARAIS ARPRT CLOUDY    55  46  71 CALM      29.80R
$$
MNZ029>031-032-039>041-046>048-054>057-064-270400-
   West Central Minnesota

CITY           SKY/WX    TMP DP  RH WIND       PRES   REMARKS
FERGUS FALLS   PTCLDY    57  45  62 W6        29.81R
WHEATON        PTCLDY    59  43  55 CALM      29.85R
MORRIS         PTCLDY    57  46  67 W6        29.84R
ALEXANDRIA     PTCLDY    57  45  64 W6        29.84R
ELBOW LAKE     FAIR      57  45  62 NW7       29.84R
WADENA         PTCLDY    57  45  62 W3        29.81R
GLENWOOD       CLEAR     57  45  62 W7        29.85R
APPLETON       CLOUDY    63  45  51 NW7       29.84R
BENSON         PTCLDY    61  45  55 N12       29.85R
ORTONVILLE     CLOUDY    61  45  55 NW3       29.85R
MADISON        CLOUDY    63  48  59 NW5       29.86R
WILLMAR        FAIR      61  46  59 NW5       29.85R
$$
MNZ033>034-036-042>043-049>051-058-059-270400-
   Central Minnesota

CITY           SKY/WX    TMP DP  RH WIND       PRES   REMARKS
ST CLOUD       CLEAR     60  48  64 W8        29.80R
SAUK CENTRE    FAIR      56  45  65 W8        29.83R
PAYNESVILLE    CLEAR     57  46  65 W5        29.83R
AITKIN         CLEAR     57  48  72 CALM      29.77R
PINE RIVER     CLEAR     61  46  59 CALM      29.83R
BRAINERD       PTCLDY    63  45  51 W5        29.79R
STAPLES        PTCLDY    55  45  67 W6        29.81R
LONG PRAIRIE   FAIR      59  43  55 SW6       29.83R
LITTLE FALLS   CLEAR     61  43  51 W5        29.81R
LITCHFIELD     CLEAR     63  50  63 W3        29.83R
BUFFALO        CLEAR     63  46  54 CALM      29.81R
MAPLE LAKE     CLEAR     62  49  62 CALM      29.82R
HUTCHINSON     CLEAR     64  48  56 W6        29.83R
$$
MNZ037-044-045-052-053-270400-
   East Central Minnesota

CITY           SKY/WX    TMP DP  RH WIND       PRES   REMARKS
PRINCETON      CLEAR     63  48  59 CALM      29.79R
MORA           CLEAR     63  46  55 CALM      29.79R
CAMBRIDGE      CLEAR     63  48  59 CALM      29.78R
RUSH CITY      PTCLDY    58  50  75 CALM      29.79R
MOOSE LAKE     PTCLDY    54  48  82 CALM      29.76R
HINCKLEY       FAIR      57  52  82 CALM      29.78R
CLOQUET        CLEAR     52  48  87 CALM      29.78R
MCGREGOR       PTCLDY    63  46  55 W5        29.77R
$$
MNZ071>073-080-081-089-090-097-098-270400-
   Southwest Minnesota

CITY           SKY/WX    TMP DP  RH WIND       PRES   REMARKS
MONTEVIDEO     CLEAR     61  45  55 N3        29.85R
CANBY          CLOUDY    58  48  69 CALM      29.87R
MARSHALL       CLOUDY    61  47  59 W8        29.86R
REDWOOD FALLS  CLEAR     64  44  48 W6        29.82R
OLIVIA         CLEAR     61  45  55 NW6       29.83R
PIPESTONE      CLOUDY    59  45  58 CALM      29.88R
WINDOM         CLEAR     61  46  59 W5        29.86R
WORTHINGTON    CLEAR     60  44  55 W6        29.88R
JACKSON        CLEAR     61  45  55 CALM      29.87R
TRACY          CLEAR     64  46  51 W5        29.86R
SLAYTON        CLOUDY    62  43  50 W7        29.87R
$$
MNZ065>067-074>077-082>085-091>093-270400-
   South Central Minnesota

CITY           SKY/WX    TMP DP  RH WIND       PRES   REMARKS
MANKATO        CLEAR     65  47  52 W7        29.82R
NEW ULM        CLEAR     61  48  63 W3        29.83R
ST JAMES       CLEAR     64  48  55 W6        29.85R
FAIRMONT       CLEAR     64  46  52 NW8       29.85R
GLENCOE        CLEAR     65  52  61 W5        29.81R
FARIBAULT      PTCLDY    64  48  55 W6        29.81R
OWATONNA       CLEAR     64  48  55 W8        29.82R
WASECA         CLEAR     63  46  55 W9        29.83R
ALBERT LEA     CLEAR     68  52  56 NW5       29.83R
$$
MNZ078>079-086>088-094>096-270400-
   Southeast Minnesota

CITY           SKY/WX    TMP DP  RH WIND       PRES   REMARKS
ROCHESTER      PTCLDY    64  58  80 S10       29.82R
RED WING       MOCLDY    70  55  60 CALM      29.78R
STANTON        PTCLDY    66  50  55 CALM      29.78R
DODGE CENTER   PTCLDY    64  57  77 S5        29.83R
WINONA         CLEAR     63  55  77 SE6       29.81R
AUSTIN         PTCLDY    63  57  82 SW3       29.83R
PRESTON        CLOUDY    61  56  83 S10       29.84R
$$
ABBREVIATIONS USED IN REMARKS
   TC - TEMPERATURES IN CELSIUS
  WCI - WIND CHILL INDEX
   HX - HEAT INDEX
  VSB - VISIBILITY
$$



USA.gov is the U.S. government's official web portal to all federal, state and local government web resources and services.